This demonstration page uses our WeatherBlox Daily Observations layout. Learn more.

Left ArrowRight Arrow

Hourly Observations for December 17, 2020

Temp ( °F °C ) Dew Point ( °F °C ) Humidity (%) Winds ( mph kmh ) Pressure ( in mb ) Visibility ( mi km ) Precip ( " mm )
12:51 am 00:51 Clear 33 0.6 20 -6.7 58 58 SE 5 7 30.14 1021 10 16.0934 0 0
1:51 am 01:51 Clear 31 -0.6 20 -6.7 64 64 E 5 7 30.12 1020 10 16.0934 0 0
2:51 am 02:51 Clear 33 0.6 20 -6.7 58 58 SSE 12 19 30.12 1020 10 16.0934 0 0
3:51 am 03:51 Clear 32 0 20 -6.7 61 61 SE 6 9 30.12 1020 10 16.0934 0 0
4:51 am 04:51 Clear 37 2.8 20 -6.7 50 50 ESE 15 24 30.1 1019 10 16.0934 0 0
5:51 am 05:51 Clear 37 2.8 20 -6.7 50 50 ESE 10 17 30.11 1020 10 16.0934 0 0
6:51 am 06:51 Clear 38 3.3 20 -6.7 48 48 ESE 15 24 30.14 1021 10 16.0934 0 0
7:51 am 07:51 Sunny 40 4.4 20 -6.7 45 45 ESE 17 28 30.14 1021 10 16.0934 0 0
8:51 am 08:51 Sunny 44 6.7 21 -6.1 40 40 ESE 16 26 30.14 1021 10 16.0934 0 0
9:51 am 09:51 Sunny 49 9.4 21 -6.1 33 33 SE 12 19 30.13 1020 10 16.0934 0 0
10:51 am 10:51 Sunny 54 12.2 19 -7.2 25 25 ESE 15 24 30.11 1020 10 16.0934 0 0
11:51 am 11:51 Sunny 56 13.3 19 -7.2 24 24 SE 9 15 30.05 1018 10 16.0934 0 0
12:51 pm 12:51 Sunny 58 14.4 18 -7.8 21 21 ESE 9 15 30.01 1016 10 16.0934 0 0
1:51 pm 13:51 Sunny 56 13.3 19 -7.2 24 24 S 7 11 29.98 1015 10 16.0934 0 0
2:51 pm 14:51 Sunny 58 14.4 20 -6.7 23 23 Calm 29.94 1014 10 16.0934 0 0
3:51 pm 15:51 Sunny 61 16.1 19 -7.2 20 20 Calm 29.93 1014 10 16.0934 0 0
4:51 pm 16:51 Sunny 58 14.4 20 -6.7 23 23 Calm 29.92 1013 10 16.0934 0 0
5:51 pm 17:51 Clear 55 12.8 21 -6.1 26 26 SE 5 7 29.9 1013 10 16.0934 0 0
6:51 pm 18:51 Clear 52 11.1 22 -5.6 31 31 E 5 7 29.9 1013 10 16.0934 0 0
7:51 pm 19:51 Clear 52 11.1 21 -6.1 30 30 E 8 13 29.89 1012 10 16.0934 0 0
8:51 pm 20:51 Clear 50 10 22 -5.6 33 33 ESE 3 6 29.87 1012 10 16.0934 0 0
9:51 pm 21:51 Clear 46 7.8 25 -3.9 44 44 NNW 8 13 29.89 1012 10 16.0934 0 0
10:51 pm 22:51 Clear 45 7.2 23 -5 42 42 W 5 7 29.89 1012 10 16.0934 0 0
11:51 pm 23:51 Clear 42 5.6 24 -4.4 49 49 NW 5 7 29.9 1012 10 16.0934 0 0

Powered by AerisWeather